Wind_Gust
16 16 17 16 16 17 17 16 16 15 16 16 16 15 15 14 12 12 12 13 13 14 14 13 13 12 13 13 12 14 15 12 13 13 12 12 13 12 13 13 12 12
14 15 15 15 15 16 16 16 16 17 16 15 16 15 15 14 12 12 12 12 13 13 13 13 13 13 12 14 13 13 14 12 12 13 12 11 11 12 12 11 11 11
13 14 15 15 15 16 16 16 16 16 17 16 16 15 16 14 13 12 12 11 12 12 12 12 13 13 13 13 12 13 14 12 12 12 12 13 12 12 11 11 12 12
14 15 15 15 16 17 16 17 16 16 16 18 16 16 16 14 14 14 13 12 13 12 12 11 11 12 13 14 12 14 13 13 13 11 11 11 11 12 11 11 11 12
15 16 16 17 17 17 16 17 17 17 17 16 16 16 17 16 15 15 14 13 13 13 13 13 12 12 11 12 12 13 12 13 11 10 11 11 10 10 10 10 11 11
13 15 16 17 18 18 17 17 17 17 17 16 17 17 16 16 16 15 15 14 14 15 15 15 14 13 11 11 10 11 11 12 11 10 12 11 11 9 10 10 10 11
15 15 14 15 16 18 16 15 15 15 16 16 17 16 16 16 15 16 16 16 16 16 16 16 15 14 13 12 11 11 11 11 10 10 11 11 10 10 9 8 9 10
15 14 15 15 16 17 16 16 15 15 14 15 16 16 16 16 16 15 15 16 16 16 16 16 16 16 14 13 13 13 12 10 10 10 9 10 8 9 10 8 7 8
14 13 14 15 16 16 17 17 16 15 15 15 16 16 16 16 16 16 16 16 15 15 15 15 15 15 14 14 13 13 14 12 11 10 10 10 9 9 10 10 9 8
13 13 13 14 15 16 17 16 17 16 16 15 16 16 18 16 16 17 16 15 14 14 15 14 14 13 14 14 14 13 13 13 13 11 12 11 10 10 10 10 9 9
13 14 14 15 16 15 17 18 17 17 16 17 15 16 16 17 18 17 16 16 15 15 15 14 14 13 13 12 11 10 10 10 11 12 12 13 13 13 8 12 12 12
13 13 15 16 16 16 17 18 18 17 17 16 17 17 16 17 17 17 17 17 16 15 13 13 12 11 12 13 13 13 12 12 12 13 13 13 14 15 16 15 14 15
14 14 14 14 15 16 18 19 19 17 17 17 16 15 15 18 17 17 16 16 16 14 14 13 12 12 11 10 11 13 14 15 14 14 14 13 13 14 15 16 16 16
14 14 15 15 15 16 18 18 18 18 16 15 14 14 15 18 17 17 15 16 14 14 13 13 13 14 13 13 14 13 13 14 14 14 14 14 14 14 14 14 15 15
12 12 13 14 15 16 16 17 18 18 17 15 14 14 15 16 16 15 15 15 15 13 14 12 11 11 11 12 13 15 14 14 13 13 13 13 13 13 13 14 15 15
12 11 12 13 14 15 15 15 16 16 16 15 16 16 15 14 15 14 14 14 14 13 13 12 11 11 11 9 9 12 11 10 10 10 11 10 11 11 12 12 13 13
12 12 12 13 13 13 13 14 15 13 14 14 14 13 13 12 11 12 12 11 12 12 13 11 11 13 8 5 3 5 10 9 9 9 9 8 9 9 10 10 11 11
12 12 12 13 12 13 14 15 15 15 14 12 9 9 11 11 11 11 11 11 11 12 11 11 12 7 5 4 4 3 7 11 8 8 9 8 9 9 9 10 10 10
11 12 12 13 12 11 11 11 14 14 15 14 11 10 10 12 10 11 11 11 12 13 13 12 12 4 2 4 5 5 5 10 10 8 8 8 9 8 10 10 10 9
10 10 11 12 12 12 12 12 12 11 11 10 11 10 13 13 12 12 13 13 12 12 13 14 14 6 3 5 5 5 5 8 11 8 8 10 10 10 8 10 10 11
12 12 12 12 12 12 11 12 12 14 15 14 14 16 18 16 14 13 12 12 12 11 13 13 14 6 2 3 5 5 6 8 10 9 10 11 11 11 10 10 10 9
13 13 13 13 14 14 14 14 13 13 15 14 14 14 13 12 13 13 12 12 11 11 12 13 12 7 4 3 4 6 9 11 10 10 11 11 12 12 11 12 12 11
14 14 14 12 12 13 14 14 13 14 14 14 14 14 14 13 13 12 13 13 12 11 11 13 12 7 3 5 7 8 10 10 10 11 12 13 12 12 13 15 15 14
16 15 13 12 11 11 12 11 11 11 11 10 12 12 13 13 13 13 12 11 11 11 9 10 13 8 3 4 5 7 11 11 10 12 12 13 13 13 14 16 18 18
14 17 18 17 15 13 12 12 11 11 11 11 11 11 12 13 13 14 12 11 11 11 3 7 13 10 4 3 4 5 11 10 9 12 11 12 13 14 13 15 17 15
10 11 12 14 15 14 13 11 11 11 13 12 11 12 14 12 12 12 12 11 11 11 10 8 11 13 10 2 3 4 8 15 9 10 10 10 10 13 13 14 16 17
Wind_Speed
5 6 7 7 7 7 7 7 7 7 7 7 7 6 6 6 5 6 6 6 6 6 6 6 6 5 5 6 5 6 6 5 5 5 5 5 5 5 5 6 6 5
6 6 6 6 7 7 7 7 8 8 8 7 7 7 7 6 5 5 5 6 5 6 6 6 6 6 5 6 5 5 6 5 5 4 4 5 4 5 5 5 5 5
6 6 7 7 7 8 8 8 8 8 8 8 8 7 7 6 6 5 5 5 5 5 5 5 6 6 6 6 5 5 5 5 5 5 5 5 5 5 4 5 5 5
7 7 7 8 8 9 8 8 8 7 8 8 7 7 7 6 6 6 6 6 5 5 5 5 5 5 6 6 5 5 5 5 5 4 4 4 4 4 4 4 4 5
8 7 7 8 8 8 8 8 9 8 9 8 8 8 8 7 7 7 6 6 6 6 6 6 5 5 4 4 5 5 5 5 4 3 4 4 3 3 3 3 4 4
7 7 7 8 9 9 7 8 9 9 9 9 8 8 7 8 7 7 7 6 6 6 7 7 6 5 4 4 4 4 4 4 4 3 4 4 4 2 2 3 3 3
8 7 8 7 9 10 8 7 7 8 8 8 8 7 7 7 7 7 7 7 7 7 7 7 7 6 5 5 4 4 3 4 4 3 3 4 3 3 2 2 2 3
8 7 7 7 9 9 9 8 7 7 7 8 8 8 8 7 8 7 7 7 7 8 7 8 8 7 6 5 5 5 5 3 3 3 2 3 2 2 2 0 1 1
7 7 7 8 9 8 9 8 8 8 7 8 8 7 8 7 8 7 7 7 7 6 7 6 7 7 6 6 6 6 6 5 4 3 3 3 3 2 2 2 2 1
7 6 7 7 8 7 9 9 8 8 8 8 7 7 8 8 8 8 7 6 6 6 6 6 6 5 6 6 6 6 5 5 5 4 4 4 3 3 2 2 2 2
7 7 7 8 8 7 9 9 9 8 7 8 8 7 8 8 8 8 7 7 6 6 6 6 5 5 5 5 4 3 3 3 4 4 4 4 5 5 5 4 5 5
7 7 7 8 8 8 9 9 9 9 9 8 8 9 9 8 8 7 7 7 7 7 6 5 4 4 4 5 5 5 4 4 3 4 4 4 5 6 6 6 6 6
6 6 6 7 7 7 8 8 8 8 9 8 8 8 8 8 8 7 7 7 7 6 6 5 4 4 4 3 3 4 4 4 4 5 4 4 4 4 5 5 6 6
6 7 7 7 7 7 8 8 8 8 8 7 7 7 7 7 7 7 6 6 5 6 4 4 4 4 4 4 4 4 4 4 4 4 5 5 5 5 5 5 6 6
5 5 6 6 6 7 7 7 7 7 7 7 7 6 5 5 5 6 6 6 5 4 4 3 2 2 1 1 3 4 4 5 4 4 4 4 4 4 4 4 4 5
5 4 5 5 6 6 6 6 6 6 6 6 5 5 4 3 4 4 4 4 4 3 3 2 1 2 6 8 7 4 3 2 2 3 3 3 3 3 3 4 4 4
4 5 5 5 4 5 5 5 5 6 5 4 4 4 3 1 1 3 2 2 3 2 3 3 2 5 7 5 2 5 4 2 3 3 2 2 2 2 2 2 3 3
4 5 5 5 5 5 5 5 7 6 6 5 2 3 4 2 3 2 2 2 2 3 3 3 4 5 5 3 2 1 6 3 2 2 2 1 1 0 1 1 2 2
3 4 5 5 5 4 4 4 5 5 5 4 4 4 2 1 1 1 2 3 4 5 5 4 4 4 1 3 3 4 5 7 1 2 1 2 1 1 2 2 3 2
2 3 4 5 5 5 5 5 5 4 4 4 4 4 3 3 4 4 5 5 5 5 5 6 6 4 2 2 3 3 5 6 2 1 2 3 3 2 1 2 2 3
4 4 4 4 4 4 4 5 5 6 6 5 5 6 7 7 6 6 5 5 4 4 5 5 5 3 0 2 3 4 5 7 1 2 2 3 3 4 3 3 3 2
5 5 5 5 5 4 5 5 6 6 7 6 6 6 5 5 5 5 5 5 4 4 5 5 4 5 2 3 3 5 6 4 2 1 2 3 4 4 4 4 4 3
6 6 6 5 5 5 6 6 6 6 6 6 6 6 6 6 5 5 5 5 5 4 4 5 4 4 2 2 4 6 6 3 2 2 3 4 4 4 5 5 5 5
5 5 5 5 4 4 5 4 4 4 4 3 4 5 5 5 5 5 4 4 4 4 2 3 4 4 1 3 5 7 8 3 3 3 4 4 5 4 5 6 8 13
3 4 5 6 6 5 5 5 4 3 3 3 3 3 4 4 4 4 4 4 4 4 2 1 5 5 2 2 4 5 6 3 2 3 2 3 3 5 5 6 7 9
2 3 4 5 6 6 5 5 4 4 5 4 4 3 4 4 4 3 4 3 4 4 3 2 4 5 4 1 3 4 7 6 2 3 3 2 0 3 4 6 6 7
Wind_Direction
182 156 150 144 139 140 143 139 135 138 132 134 130 127 117 112 104 96 98 92 87 90 89 90 91 89 90 84 76 77 77 69 64 58 58 49 51 45 48 47 40 43
203 168 151 145 136 142 141 139 138 139 137 138 132 127 120 124 119 117 110 109 103 93 92 94 95 97 95 90 87 85 83 78 75 79 77 70 73 70 56 45 44 37
207 176 162 154 146 144 144 141 141 141 143 138 134 136 133 134 137 135 132 125 115 110 101 96 97 97 100 104 101 92 87 80 73 66 64 63 61 66 67 57 57 47
208 192 170 154 147 148 147 146 147 145 142 144 147 142 144 146 150 151 148 150 138 132 120 114 107 104 101 105 108 98 99 91 85 86 81 78 72 71 65 66 58 59
200 191 174 156 149 152 156 154 153 149 149 148 148 151 153 154 158 158 159 156 150 144 141 134 126 113 117 107 102 106 107 106 114 106 92 90 80 72 76 80 82 80
196 191 178 159 150 155 163 162 158 153 152 153 157 159 157 163 164 163 160 161 158 152 151 148 143 141 132 122 118 110 120 109 107 126 120 118 117 117 106 102 108 101
192 186 168 158 152 155 160 164 161 159 158 158 156 162 160 168 173 169 167 168 162 162 154 154 151 151 149 147 138 127 114 108 131 130 129 110 112 125 133 134 107 98
184 178 160 154 155 156 160 162 170 168 162 160 163 161 167 171 175 177 175 177 171 165 162 155 158 153 159 160 148 146 141 149 150 151 109 101 129 138 113 66 125 182
169 161 153 151 158 165 163 167 172 171 166 167 169 165 171 176 177 181 185 184 178 175 169 163 165 158 163 166 160 165 162 159 167 160 160 154 169 173 186 135 201 193
158 146 149 156 163 174 169 169 176 175 174 174 174 173 174 179 179 184 185 191 188 187 178 177 172 167 173 178 171 166 167 163 169 174 180 181 182 194 181 184 225 235
148 150 161 168 172 174 175 174 178 175 172 179 176 180 179 180 183 187 184 191 195 197 186 183 182 181 175 179 170 185 178 169 184 183 190 197 194 197 196 205 214 224
156 159 169 176 177 178 179 178 181 181 174 182 183 184 183 187 187 184 191 192 193 204 191 183 186 180 197 196 194 189 200 200 207 201 206 213 201 212 209 204 211 220
167 171 173 183 184 182 179 177 181 183 179 178 184 191 187 191 193 194 196 204 201 198 202 198 185 184 182 194 208 208 212 207 203 205 211 212 214 214 222 223 229 226
170 174 178 180 178 177 178 178 177 178 179 170 176 187 192 195 196 199 187 204 196 201 194 176 183 194 189 190 210 204 209 211 209 214 220 210 207 211 208 215 224 231
157 164 172 169 170 170 174 174 176 174 168 164 172 179 188 192 189 183 181 188 183 192 189 187 213 205 187 237 226 216 217 216 217 220 218 219 211 208 203 214 224 227
130 137 144 154 170 166 170 168 167 164 163 163 166 155 160 177 186 185 188 193 201 186 175 158 156 89 49 34 6 326 231 222 197 212 214 209 217 218 210 215 228 236
119 125 132 144 155 155 150 156 108 68 33 359 31 11 3 70 200 202 199 211 207 173 151 165 120 76 61 60 40 330 308 188 182 165 175 183 191 212 237 238 231 216
130 134 137 125 142 139 132 117 114 126 132 153 155 167 179 239 262 267 232 183 169 170 159 130 87 56 45 71 89 266 282 288 132 125 119 105 93 5 300 293 285 267
148 148 140 146 144 143 142 142 146 163 167 163 163 172 142 210 247 183 169 146 140 126 117 112 97 56 234 164 162 199 248 272 112 78 93 75 36 29 346 326 316 306
117 138 141 149 158 156 156 144 139 137 126 130 145 146 124 116 141 150 123 111 105 113 114 105 94 66 324 167 182 191 229 266 101 91 75 76 69 57 43 11 352 335
105 108 110 121 144 150 153 147 145 129 137 145 140 129 133 155 153 118 102 101 102 94 94 90 84 54 68 178 202 214 228 264 123 146 117 95 83 75 56 53 42 45
90 93 107 123 132 140 143 134 127 127 125 125 125 122 125 123 117 115 114 112 104 107 104 97 79 44 87 163 195 217 235 246 173 156 113 95 88 68 66 62 59 62
107 103 89 89 101 115 119 117 116 117 118 124 127 131 137 139 134 136 131 124 123 119 117 116 109 61 53 177 215 239 256 233 166 176 120 115 94 103 87 66 44 22
114 117 116 110 111 103 104 109 117 128 127 140 146 147 148 142 146 138 136 123 117 109 73 116 113 95 143 184 238 252 279 261 198 140 136 117 115 96 90 83 57 25
141 155 152 143 136 138 133 136 145 143 144 168 164 162 150 168 169 159 148 143 124 111 26 273 123 126 181 212 255 274 285 251 223 150 149 123 118 115 105 103 85 56
144 146 150 164 158 146 144 154 151 165 177 194 186 196 179 189 208 181 175 152 145 155 153 164 130 124 122 185 289 293 307 305 226 202 170 161 153 105 123 111 111 99